INTERCOSMOS 25

Last updated on Wed Nov 05 2025 00:02:14 GMT+0000 (Coordinated Universal Time)

1 21819U 91086A 25308.32585345 .00001453 00000+0 28083-3 0 9994 2 21819 82.6096 25.7911 1488754 27.1840 339.9784 12.11562456481502
UTC large
Height (km)
Speed (km/s)
/
Latitude / Longitude
Inclination (degrees)
Orbital Period (minutes)
Azimuth
Elevation
Range (km)
Doppler Factor

Next 0 passes for location: London (51.5072 / 0.1276)

Sorry there are no passes over London.